Location: Saluda
(35.2377°N, 82.3468°W)
Time: 17:37:13
(UTC+00:00)

Vanguard 1 - Pass Details

Date: 11 October 2022
Orbit: 650 x 3831 km, 34.2° (Epoch: 03 December)

Event Time Altitude Azimuth Distance (km) Brightness Sun altitude
Rises 23:09:52 0° 285° (WNW) 6,252 15.7 -3.0°
Reaches altitude 10° 23:15:11 10° 278° (W) 4,670 15.2 -4.0°
Maximum altitude 23:24:59 32° 222° (SW) 2,238 12.5 -6.0°
Drops below altitude 10° 23:30:59 10° 160° (SSE) 2,809 12.3 -7.3°
Sets 23:33:22 0° 149° (SSE) 3,505 12.6 -7.7°
